KD4SN Weather Reports


Display with metric or nautical units.
time (UTC)temp
F
wind
direction
speed
MPH
gust
MPH
rain 1hr
in
rain 24hr
in
rain mn
in
humidity
%
barometer
mb
20260505090036 61 78 0.0 4.0 0.00 0.06 0.00 58 1010.1
20260505085508 61 103 0.0 4.0 0.00 0.06 0.00 59 1010.0
20260505085009 61 74 0.0 2.0 0.00 0.06 0.00 58 1010.1
20260505084523 62 92 0.0 2.0 0.00 0.06 0.00 58 1010.0
20260505084012 62 92 0.0 2.0 0.00 0.06 0.00 58 1010.0
20260505083502 62 92 1.0 3.0 0.00 0.06 0.00 57 1009.9
20260505083009 62 84 0.0 4.0 0.00 0.06 0.00 58 1009.8
20260505082502 62 99 1.0 4.0 0.00 0.06 0.00 57 1009.7
20260505082004 62 71 1.0 4.0 0.00 0.06 0.00 58 1009.6
20260505081508 62 90 1.0 4.0 0.00 0.06 0.00 57 1009.6
20260505081005 62 99 1.0 4.0 0.00 0.06 0.00 57 1009.6
20260505080505 62 93 1.0 4.0 0.00 0.06 0.00 57 1009.8
20260505080020 62 89 0.0 3.0 0.00 0.06 0.00 57 1009.7
20260505075506 62 29 1.0 3.0 0.00 0.06 0.00 57 1009.7
20260505075006 62 101 0.0 2.0 0.00 0.06 0.00 57 1009.6
20260505074521 63 82 0.0 3.0 0.00 0.06 0.00 57 1009.6
20260505074009 63 63 0.0 3.0 0.00 0.06 0.00 57 1009.6
20260505073507 63 96 0.0 3.0 0.00 0.06 0.00 56 1009.6
20260505073022 63 96 0.0 3.0 0.00 0.06 0.00 56 1009.6
20260505072507 63 84 1.0 3.0 0.00 0.06 0.00 56 1009.5
20260505072003 63 113 0.0 3.0 0.00 0.06 0.00 56 1009.6
20260505071506 63 92 0.0 3.0 0.00 0.06 0.00 55 1009.6
20260505071006 63 81 0.0 3.0 0.00 0.06 0.00 55 1009.6
20260505070505 63 46 1.0 3.0 0.00 0.06 0.00 55 1009.6
20260505070018 64 55 0.0 3.0 0.00 0.06 0.00 55 1009.6
20260505065508 64 61 0.0 4.0 0.00 0.06 0.00 55 1009.6
20260505065005 64 94 1.0 4.0 0.00 0.06 0.00 55 1009.7
20260505064517 64 72 0.0 4.0 0.00 0.06 0.00 54 1009.7
20260505064012 64 65 0.0 4.0 0.00 0.06 0.00 54 1009.6
20260505063511 64 102 1.0 3.0 0.00 0.06 0.00 54 1009.6
20260505063023 64 111 0.0 3.0 0.00 0.06 0.00 54 1009.7
20260505062507 64 86 1.0 3.0 0.00 0.06 0.00 54 1009.7
20260505062009 64 90 1.0 3.0 0.00 0.06 0.00 54 1009.7
20260505061526 64 103 0.0 4.0 0.00 0.06 0.00 54 1009.7
20260505061012 64 82 1.0 4.0 0.00 0.06 0.00 54 1009.7
20260505060511 64 94 0.0 3.0 0.00 0.06 0.00 54 1009.7
20260505060016 64 62 0.0 3.0 0.00 0.06 0.00 54 1009.7
20260505055504 64 88 1.0 3.0 0.00 0.06 0.00 54 1009.8
20260505055009 65 83 1.0 3.0 0.00 0.06 0.00 54 1009.8
20260505054517 65 94 1.0 3.0 0.00 0.06 0.00 54 1009.9
20260505054011 65 86 0.0 3.0 0.00 0.06 0.00 54 1009.9
20260505053511 65 67 0.0 4.0 0.00 0.06 0.00 53 1010.0
20260505053021 65 104 1.0 4.0 0.00 0.06 0.00 53 1010.0
20260505052510 65 94 0.0 3.0 0.00 0.06 0.00 54 1010.0
20260505052009 65 86 0.0 3.0 0.00 0.06 0.00 54 1010.1
20260505051524 65 61 1.0 3.0 0.00 0.06 0.00 53 1010.1
20260505051007 65 86 0.0 2.0 0.00 0.06 0.00 54 1010.1
20260505050511 65 97 0.0 3.0 0.00 0.06 0.00 54 1010.1
20260505041537 66 104 0.0 0.0 0.00 0.06 0.00 53 1010.0
20260505041007 66 104 0.0 0.0 0.00 0.06 0.00 52 1009.9
20260505040512 66 90 0.0 0.0 0.00 0.06 0.00 52 1009.9
20260505040027 66 71 0.0 0.0 0.00 0.06 0.00 52 1009.8
20260505035509 66 98 0.0 1.0 0.00 0.06 0.06 52 1009.7
20260505035015 66 98 0.0 2.0 0.00 0.06 0.06 51 1009.6
20260505034527 66 109 0.0 2.0 0.00 0.06 0.06 51 1009.6
20260505034013 67 101 0.0 3.0 0.00 0.06 0.06 51 1009.5
20260505033510 67 101 1.0 3.0 0.00 0.06 0.06 50 1009.5
20260505033014 67 93 0.0 2.0 0.00 0.06 0.06 50 1009.5
20260505032507 67 98 0.0 3.0 0.00 0.06 0.06 50 1009.4
20260505032010 67 90 0.0 3.0 0.00 0.06 0.06 50 1009.3
20260505031519 67 73 0.0 4.0 0.00 0.06 0.06 50 1009.3
20260505031010 67 84 0.0 4.0 0.00 0.06 0.06 49 1009.3
20260505030507 67 71 1.0 3.0 0.00 0.06 0.06 50 1009.3
20260505030024 67 88 0.0 2.0 0.00 0.06 0.06 50 1009.3
20260505025507 67 63 0.0 0.0 0.00 0.06 0.06 50 1009.1
20260505025007 67 80 0.0 2.0 0.00 0.06 0.06 50 1009.0
20260505024527 67 86 0.0 2.0 0.00 0.06 0.06 50 1008.9
20260505024009 67 85 0.0 2.0 0.00 0.06 0.06 50 1008.8
20260505023508 67 96 1.0 2.0 0.00 0.06 0.06 50 1008.7
20260505023039 67 54 0.0 2.0 0.00 0.06 0.06 51 1008.6
20260505022508 67 95 0.0 1.0 0.00 0.06 0.06 51 1008.7
20260505022016 67 109 0.0 2.0 0.00 0.06 0.06 51 1008.7
20260505021516 67 88 0.0 2.0 0.00 0.06 0.06 51 1008.7
20260505021008 68 104 0.0 2.0 0.00 0.06 0.06 51 1008.6
20260505020506 68 71 0.0 2.0 0.00 0.06 0.06 51 1008.6
20260505020021 68 49 0.0 2.0 0.00 0.06 0.06 51 1008.5
20260505015512 68 78 0.0 3.0 0.00 0.06 0.06 51 1008.5
20260505015009 68 57 0.0 3.0 0.00 0.06 0.06 50 1008.4
20260505014506 68 66 0.0 1.0 0.00 0.06 0.06 50 1008.3
20260505014003 69 54 0.0 3.0 0.00 0.06 0.06 49 1008.3
20260505013502 69 56 0.0 3.0 0.00 0.06 0.06 49 1008.3
20260505013011 69 47 0.0 3.0 0.00 0.06 0.06 49 1008.2
20260505012507 69 63 0.0 3.0 0.00 0.06 0.06 48 1008.2
20260505012008 69 63 0.0 4.0 0.00 0.06 0.06 48 1008.3
20260505011521 69 58 0.0 4.0 0.00 0.06 0.06 47 1008.2
20260505011008 70 69 0.0 3.0 0.00 0.06 0.06 47 1008.2
20260505010505 70 57 1.0 3.0 0.00 0.06 0.06 47 1008.1
20260505010019 70 50 0.0 3.0 0.00 0.06 0.06 46 1008.0
20260505005509 70 55 0.0 2.0 0.00 0.06 0.06 46 1008.0
20260505005009 70 84 0.0 2.0 0.00 0.06 0.06 46 1008.0
20260505004503 70 67 0.0 2.0 0.00 0.06 0.06 46 1008.0
20260505004003 70 76 0.0 3.0 0.00 0.06 0.06 46 1008.0
20260505003508 70 95 0.0 3.0 0.00 0.06 0.06 45 1008.0
20260505003007 71 47 0.0 0.0 0.00 0.06 0.06 45 1008.1
20260505002505 71 74 0.0 0.0 0.00 0.06 0.06 45 1008.2
20260505002007 71 105 0.0 1.0 0.00 0.06 0.06 45 1008.2
20260505001510 72 105 0.0 2.0 0.00 0.06 0.06 44 1008.2
20260505001010 72 102 0.0 2.0 0.00 0.06 0.06 43 1008.4
20260505000503 72 80 0.0 2.0 0.00 0.06 0.06 43 1008.5
20260505000027 72 105 0.0 3.0 0.00 0.06 0.06 43 1008.5
20260504235506 72 60 0.0 3.0 0.00 0.06 0.06 42 1008.6
20260504235011 73 111 0.0 2.0 0.00 0.06 0.06 42 1008.6
20260504234523 73 101 0.0 3.0 0.00 0.06 0.06 43 1008.7
20260504234009 73 103 1.0 3.0 0.00 0.06 0.06 42 1008.8
20260504233511 73 105 1.0 3.0 0.00 0.06 0.06 43 1008.9
20260504233027 74 96 0.0 3.0 0.00 0.06 0.06 43 1009.1
20260504232503 74 117 0.0 3.0 0.00 0.06 0.06 42 1009.1
20260504232002 74 95 0.0 4.0 0.00 0.06 0.06 42 1009.1
20260504231508 74 106 0.0 4.0 0.00 0.06 0.06 41 1009.2
20260504231006 74 136 0.0 4.0 0.00 0.06 0.06 40 1009.1
20260504230508 75 103 1.0 5.0 0.00 0.06 0.06 40 1009.2
20260504230017 75 86 1.0 5.0 0.00 0.06 0.06 40 1009.3
20260504225510 75 115 1.0 4.0 0.00 0.06 0.06 38 1009.4
20260504225007 75 51 1.0 8.0 0.00 0.06 0.06 39 1009.5
20260504224517 76 98 1.0 8.0 0.00 0.06 0.06 38 1009.5
20260504224004 76 107 1.0 5.0 0.00 0.06 0.06 38 1009.5
20260504223503 76 111 1.0 5.0 0.00 0.06 0.06 37 1009.5
20260504223006 76 106 0.0 6.0 0.00 0.06 0.06 39 1009.4
20260504222505 76 102 2.0 6.0 0.00 0.06 0.06 38 1009.5
20260504222007 76 86 1.0 7.0 0.00 0.06 0.06 39 1009.5
20260504221511 76 151 1.0 7.0 0.00 0.06 0.06 39 1009.5
20260504221003 76 121 1.0 6.0 0.00 0.06 0.06 39 1009.5
20260504220507 76 96 1.0 6.0 0.00 0.06 0.06 38 1009.5
20260504220011 76 90 1.0 4.0 0.00 0.06 0.06 39 1009.6
20260504215507 76 88 1.0 3.0 0.00 0.06 0.06 39 1009.5
20260504215009 76 105 1.0 6.0 0.00 0.06 0.06 39 1009.5
20260504214517 76 95 2.0 7.0 0.00 0.06 0.06 37 1009.5
20260504214005 76 69 1.0 7.0 0.00 0.06 0.06 39 1009.5
20260504213507 76 75 2.0 7.0 0.00 0.06 0.06 38 1009.5
20260504213042 76 99 2.0 6.0 0.00 0.06 0.06 39 1009.5
20260504212504 76 117 2.0 5.0 0.00 0.06 0.06 39 1009.5
20260504212004 76 106 1.0 6.0 0.00 0.06 0.06 38 1009.5
20260504211511 76 118 2.0 7.0 0.00 0.06 0.06 39 1009.5
20260504211007 76 148 2.0 11.0 0.00 0.06 0.06 39 1009.5
20260504210503 76 106 2.0 11.0 0.00 0.06 0.06 39 1009.5
20260504210011 77 105 2.0 7.0 0.00 0.06 0.06 37 1009.5
20260504205507 77 19 2.0 6.0 0.00 0.06 0.06 39 1009.5
20260504205007 77 60 1.0 9.0 0.00 0.06 0.06 39 1009.5
20260504204512 77 136 2.0 9.0 0.00 0.06 0.06 37 1009.6
20260504204009 78 95 2.0 7.0 0.00 0.06 0.06 38 1009.6
20260504203511 78 106 2.0 7.0 0.00 0.06 0.06 38 1009.7
20260504203020 78 66 1.0 7.0 0.00 0.06 0.06 39 1009.7
20260504202507 78 102 3.0 7.0 0.00 0.06 0.06 37 1009.8
20260504202009 78 113 1.0 7.0 0.00 0.06 0.06 36 1009.8
20260504201526 78 43 3.0 9.0 0.00 0.06 0.06 36 1009.8
20260504201002 78 89 2.0 9.0 0.00 0.06 0.06 38 1009.8
20260504200505 77 87 1.0 7.0 0.00 0.06 0.06 39 1010.0
20260504200006 77 121 2.0 7.0 0.00 0.06 0.06 40 1010.2
20260504195506 77 122 3.0 6.0 0.00 0.06 0.06 39 1010.3
20260504195003 77 82 1.0 7.0 0.00 0.06 0.06 39 1010.4
20260504194514 77 102 2.0 8.0 0.00 0.06 0.06 39 1010.5
20260504194003 77 73 2.0 8.0 0.00 0.06 0.06 40 1010.6
20260504193509 77 78 1.0 7.0 0.00 0.06 0.06 41 1010.6
20260504193016 76 88 2.0 7.0 0.00 0.06 0.06 41 1010.6
20260504192509 76 79 2.0 8.0 0.00 0.06 0.06 41 1010.7
20260504192010 76 120 1.0 8.0 0.00 0.06 0.06 41 1010.7
20260504191520 76 150 2.0 6.0 0.00 0.06 0.06 42 1010.8
20260504191012 75 138 2.0 6.0 0.00 0.06 0.06 43 1010.8
20260504190507 75 96 2.0 6.0 0.00 0.06 0.06 42 1010.9
20260504190024 75 111 3.0 6.0 0.00 0.06 0.06 45 1010.9
20260504185506 74 93 1.0 7.0 0.00 0.06 0.06 45 1010.9
20260504185002 74 87 3.0 7.0 0.00 0.06 0.06 44 1010.8
20260504184511 74 99 1.0 6.0 0.00 0.06 0.06 45 1010.8
20260504184007 74 81 2.0 9.0 0.00 0.06 0.06 44 1010.9
20260504183508 73 89 2.0 9.0 0.00 0.06 0.06 47 1010.8
20260504183020 73 50 1.0 7.0 0.00 0.06 0.06 48 1010.8
20260504182509 72 61 2.0 7.0 0.00 0.06 0.06 49 1010.8
20260504182008 72 72 2.0 7.0 0.00 0.06 0.06 46 1010.9
20260504181520 72 88 1.0 7.0 0.00 0.06 0.06 48 1010.9
20260504181008 72 111 1.0 6.0 0.00 0.06 0.06 46 1010.9
20260504180507 72 77 2.0 6.0 0.00 0.06 0.06 48 1010.8
20260504180024 71 114 1.0 6.0 0.00 0.06 0.06 48 1010.8
20260504175507 71 63 2.0 8.0 0.00 0.06 0.06 48 1010.9
20260504175011 71 80 3.0 9.0 0.00 0.06 0.06 48 1010.8
20260504174526 71 67 2.0 9.0 0.00 0.06 0.06 49 1010.8
20260504174004 70 107 2.0 7.0 0.00 0.06 0.06 48 1010.8
20260504173510 70 107 2.0 8.0 0.00 0.06 0.06 48 1010.8
20260504173023 70 71 2.0 8.0 0.00 0.06 0.06 49 1010.9
20260504172507 70 50 2.0 9.0 0.00 0.06 0.06 48 1010.8
20260504172008 70 91 2.0 10.0 0.00 0.06 0.06 49 1010.9
20260504171523 70 37 2.0 12.0 0.00 0.06 0.06 47 1010.9
20260504171012 69 57 1.0 12.0 0.00 0.06 0.06 50 1011.0
20260504170506 69 55 3.0 11.0 0.00 0.06 0.06 49 1011.0
20260504151015 60 55 1.0 10.0 0.00 0.06 0.06 64 1012.1
20260504150504 59 92 1.0 11.0 0.00 0.06 0.06 67 1012.1
20260504141014 53 63 0.0 6.0 0.00 0.06 0.06 80 1013.0
20260504140510 53 61 0.0 0.0 0.00 0.06 0.06 82 1013.2
20260504130503 53 151 0.0 5.0 0.00 0.06 0.06 77 1013.5
20260504110502 50 33 0.0 2.0 0.05 0.06 0.06 86 1012.6
20260504100503 52 57 0.0 2.0 0.01 0.01 0.01 75 1013.4